GW0912 Weather Reports


time (UTC)temp
C
wind
direction
speed
KPH
gust
KPH
rain 1hr
cm
rain 24hr
cm
rain mn
cm
humidity
%
barometer
mb
20260507022834 23 85 3.2 9.7 0.00 0.00 0.00 85 1015.9
20260507022330 23 121 12.9 12.9 0.00 0.00 0.00 85 1015.9
20260507021826 23 105 3.2 9.7 0.00 0.00 0.00 85 1016.0
20260507021322 23 225 0.0 6.4 0.00 0.00 0.00 85 1016.1
20260507020820 23 270 3.2 6.4 0.00 0.00 0.00 85 1016.2
20260507020316 23 48 6.4 6.4 0.00 0.00 0.00 84 1016.3
20260507015813 23 152 4.8 8.0 0.00 0.00 0.00 84 1016.8
20260507015311 23 225 3.2 8.0 0.00 0.00 0.00 84 1016.5
20260507014808 23 206 3.2 8.0 0.00 0.00 0.00 83 1016.3
20260507014304 23 64 6.4 8.0 0.00 0.00 0.00 83 1016.8
20260507013800 23 83 1.6 4.8 0.00 0.00 0.00 83 1017.1
20260507013258 23 109 1.6 8.0 0.00 0.00 0.00 83 1016.5
20260507012755 23 90 4.8 4.8 0.00 0.00 0.00 83 1016.5
20260507012250 23 192 1.6 9.7 0.00 0.00 0.00 83 1016.7
20260507011749 23 328 3.2 11.3 0.00 0.00 0.00 83 1016.6
20260507011245 23 195 0.0 9.7 0.00 0.00 0.00 82 1016.7
20260507010744 23 257 0.0 8.0 0.00 0.00 0.00 82 1016.7
20260507010241 23 159 3.2 8.0 0.00 0.00 0.00 83 1016.7
20260507005738 23 221 3.2 8.0 0.00 0.00 0.00 83 1017.0
20260507005234 23 175 3.2 9.7 0.00 0.00 0.00 83 1016.8
20260507004731 23 223 6.4 9.7 0.00 0.00 0.00 82 1016.8
20260507004229 23 69 1.6 9.7 0.00 0.00 0.00 82 1016.5
20260507003725 23 93 4.8 11.3 0.00 0.00 0.00 82 1016.8
20260507003220 23 28 0.0 6.4 0.00 0.00 0.00 82 1016.5
20260507002717 23 270 1.6 11.3 0.00 0.00 0.00 81 1016.5
20260507002213 23 228 11.3 11.3 0.00 0.00 0.00 81 1016.6
20260507001709 23 117 0.0 11.3 0.00 0.00 0.00 80 1016.7
20260507001207 23 90 6.4 12.9 0.00 0.00 0.00 80 1016.5
20260507000703 23 266 8.0 14.5 0.00 0.00 0.00 79 1016.5
20260507000159 23 237 3.2 11.3 0.00 0.00 0.00 79 1016.7
20260506235656 23 200 0.0 12.9 0.00 0.00 0.00 79 1016.7
20260506235151 23 186 0.0 14.5 0.00 0.00 0.00 79 1016.8
20260506234648 23 270 1.6 8.0 0.00 0.00 0.00 78 1016.8
20260506234145 23 225 8.0 9.7 0.00 0.00 0.00 78 1016.7
20260506233643 23 260 3.2 9.7 0.00 0.00 0.00 77 1016.7
20260506233139 23 226 6.4 9.7 0.00 0.00 0.00 76 1016.6
20260506232636 24 212 3.2 8.0 0.00 0.00 0.00 76 1016.3
20260506232131 24 87 4.8 9.7 0.00 0.00 0.00 75 1016.4
20260506231628 24 20 0.0 8.0 0.00 0.00 0.00 75 1016.6
20260506231127 25 102 3.2 8.0 0.00 0.00 0.00 74 1016.8
20260506230623 25 194 1.6 4.8 0.00 0.00 0.00 74 1017.0
20260506230121 25 246 0.0 8.0 0.00 0.00 0.00 74 1016.8
20260506225617 25 300 0.0 8.0 0.00 0.00 0.00 73 1016.7
20260506225113 25 282 3.2 8.0 0.00 0.00 0.00 72 1016.8
20260506224610 25 254 3.2 9.7 0.00 0.00 0.00 72 1016.8
20260506224107 25 110 0.0 16.1 0.00 0.00 0.00 71 1016.8
20260506223603 25 248 3.2 8.0 0.00 0.00 0.00 71 1016.8
20260506223059 25 216 4.8 8.0 0.00 0.00 0.00 70 1016.6
20260506222556 25 21 8.0 9.7 0.00 0.00 0.00 69 1016.7
20260506222052 26 264 0.0 6.4 0.00 0.00 0.00 70 1016.6
20260506221550 26 90 0.0 9.7 0.00 0.00 0.00 69 1016.5
20260506221048 26 68 3.2 14.5 0.00 0.00 0.00 68 1016.3
20260506220544 26 234 1.6 9.7 0.00 0.00 0.00 68 1016.4
20260506220039 27 65 8.0 9.7 0.00 0.00 0.00 67 1016.4
20260506215537 27 116 4.8 17.7 0.00 0.00 0.00 67 1016.2
20260506215032 27 229 9.7 20.9 0.00 0.00 0.00 66 1016.4
20260506214529 27 257 3.2 11.3 0.00 0.00 0.00 65 1016.3
20260506214026 27 253 11.3 12.9 0.00 0.00 0.00 65 1016.6
20260506213525 27 66 0.0 14.5 0.00 0.00 0.00 65 1016.8
20260506213021 27 28 0.0 17.7 0.00 0.00 0.00 65 1016.5
20260506212518 27 165 0.0 12.9 0.00 0.00 0.00 64 1016.6
20260506212013 27 139 3.2 11.3 0.00 0.00 0.00 65 1016.5
20260506211509 27 110 11.3 11.3 0.00 0.00 0.00 65 1016.8
20260506211007 27 235 4.8 9.7 0.00 0.00 0.00 64 1016.7
20260506210502 28 185 3.2 9.7 0.00 0.00 0.00 65 1016.7
20260506205954 27 83 1.6 9.7 0.00 0.00 0.00 66 1016.7
20260506205450 27 84 8.0 22.5 0.00 0.00 0.00 65 1016.6
20260506204946 27 124 4.8 16.1 0.00 0.00 0.00 66 1016.6
20260506204444 28 56 9.7 12.9 0.00 0.00 0.00 65 1016.7
20260506203941 28 130 6.4 11.3 0.00 0.00 0.00 65 1016.8
20260506203438 28 111 6.4 12.9 0.00 0.00 0.00 64 1016.9
20260506202935 28 99 0.0 11.3 0.00 0.00 0.00 63 1016.8
20260506202432 28 252 6.4 9.7 0.00 0.00 0.00 64 1016.8
20260506201928 28 48 3.2 20.9 0.00 0.00 0.00 65 1016.9
20260506201426 28 106 9.7 16.1 0.00 0.00 0.00 64 1016.9
20260506200923 27 82 0.0 12.9 0.00 0.00 0.00 68 1017.0
20260506200419 28 278 1.6 16.1 0.00 0.00 0.00 67 1017.2
20260506195916 27 146 3.2 24.1 0.00 0.00 0.00 68 1017.1
20260506195413 28 73 3.2 12.9 0.00 0.00 0.00 68 1017.1
20260506194909 28 75 8.0 19.3 0.00 0.00 0.00 67 1017.1
20260506194406 28 18 0.0 6.4 0.00 0.00 0.00 66 1017.0
20260506193903 28 100 12.9 16.1 0.00 0.00 0.00 64 1017.2
20260506193400 28 236 0.0 6.4 0.00 0.00 0.00 65 1017.2
20260506192856 28 101 0.0 20.9 0.00 0.00 0.00 66 1017.4
20260506192353 28 197 3.2 14.5 0.00 0.00 0.00 64 1017.2
20260506191851 27 90 4.8 24.1 0.00 0.00 0.00 67 1017.3
20260506191347 28 135 9.7 20.9 0.00 0.00 0.00 66 1017.4
20260506190844 28 134 9.7 17.7 0.00 0.00 0.00 67 1017.5
20260506190340 29 283 6.4 12.9 0.00 0.00 0.00 66 1017.7
20260506185837 28 97 16.1 16.1 0.00 0.00 0.00 66 1017.7
20260506185334 28 57 0.0 19.3 0.00 0.00 0.00 70 1017.8
20260506184831 28 115 11.3 19.3 0.00 0.00 0.00 68 1017.9
20260506184328 28 264 3.2 9.7 0.00 0.00 0.00 68 1018.1
20260506183826 28 63 1.6 9.7 0.00 0.00 0.00 69 1018.2
20260506183320 28 90 4.8 6.4 0.00 0.00 0.00 67 1018.4
20260506182818 29 195 0.0 6.4 0.00 0.00 0.00 64 1018.4
20260506182315 30 180 1.6 9.7 0.00 0.00 0.00 63 1018.5
20260506181813 29 205 11.3 11.3 0.00 0.00 0.00 65 1018.4
20260506181311 29 53 4.8 8.0 0.00 0.00 0.00 67 1018.4
20260506180808 28 15 0.0 8.0 0.00 0.00 0.00 63 1018.4
20260506180303 30 105 1.6 4.8 0.00 0.00 0.00 62 1018.5
20260506175800 30 18 0.0 9.7 0.00 0.00 0.00 59 1018.5
20260506175257 29 323 3.2 8.0 0.00 0.00 0.00 64 1018.7
20260506174754 28 94 4.8 9.7 0.00 0.00 0.00 64 1018.6
20260506174251 28 144 0.0 4.8 0.00 0.00 0.00 65 1018.7
20260506173749 27 169 3.2 14.5 0.00 0.00 0.00 65 1018.9
20260506173246 28 291 0.0 6.4 0.00 0.00 0.00 67 1019.0
20260506172742 27 192 1.6 9.7 0.00 0.00 0.00 68 1019.0
20260506172239 28 26 0.0 9.7 0.00 0.00 0.00 66 1018.9
20260506171737 28 106 3.2 6.4 0.00 0.00 0.00 66 1019.1
20260506171234 28 101 3.2 6.4 0.00 0.00 0.00 67 1019.0
20260506170731 28 208 6.4 14.5 0.00 0.00 0.00 64 1019.0
20260506170228 28 235 0.0 6.4 0.00 0.00 0.00 64 1019.3
20260506165726 28 228 3.2 11.3 0.00 0.00 0.00 63 1019.1
20260506165223 28 270 1.6 8.0 0.00 0.00 0.00 65 1019.1
20260506164720 28 225 3.2 11.3 0.00 0.00 0.00 63 1019.2
20260506164217 29 83 0.0 9.7 0.00 0.00 0.00 63 1019.3
20260506163714 29 202 4.8 4.8 0.00 0.00 0.00 63 1019.1
20260506163208 28 249 0.0 11.3 0.00 0.00 0.00 62 1019.1
20260506162705 29 0 0.0 3.2 0.00 0.00 0.00 63 1019.1
20260506162202 28 262 1.6 4.8 0.00 0.00 0.00 64 1019.2
20260506161659 28 279 0.0 8.0 0.00 0.00 0.00 64 1019.2
20260506161156 27 26 1.6 6.4 0.00 0.00 0.00 65 1019.4
20260506160654 27 157 0.0 9.7 0.00 0.00 0.00 65 1019.5
20260506160151 27 167 6.4 6.4 0.00 0.00 0.00 67 1019.6
20260506155649 27 180 1.6 12.9 0.00 0.00 0.00 66 1019.5
20260506155146 27 240 4.8 12.9 0.00 0.00 0.00 66 1019.5
20260506153248 28 357 0.0 6.4 0.00 0.00 0.00 61 1019.7
20260506152745 28 307 4.8 6.4 0.00 0.00 0.00 62 1019.5
20260506152242 27 198 3.2 6.4 0.00 0.00 0.00 63 1019.5
20260506151741 27 264 4.8 4.8 0.00 0.00 0.00 62 1019.5
20260506151237 27 255 1.6 12.9 0.00 0.00 0.00 63 1019.7
20260506150734 27 239 3.2 8.0 0.00 0.00 0.00 61 1019.6
20260506150231 27 214 3.2 11.3 0.00 0.00 0.00 61 1019.7
20260506145728 27 144 3.2 9.7 0.00 0.00 0.00 61 1019.5
20260506145224 27 201 9.7 9.7 0.00 0.00 0.00 61 1019.7
20260506144722 26 90 0.0 12.9 0.00 0.00 0.00 63 1019.4
20260506144219 27 125 3.2 6.4 0.00 0.00 0.00 60 1019.6
20260506143716 27 220 14.5 17.7 0.00 0.00 0.00 58 1019.3
20260506143214 27 315 6.4 8.0 0.00 0.00 0.00 61 1019.3
20260506142712 27 257 4.8 9.7 0.00 0.00 0.00 64 1019.1
20260506142210 26 98 0.0 9.7 0.00 0.00 0.00 64 1019.2
20260506141708 26 209 11.3 11.3 0.00 0.00 0.00 63 1019.3
20260506141206 26 203 1.6 8.0 0.00 0.00 0.00 64 1019.3
20260506140703 25 124 0.0 6.4 0.00 0.00 0.00 66 1019.3
20260506140200 26 263 1.6 4.8 0.00 0.00 0.00 66 1019.5
20260506135657 26 216 3.2 4.8 0.00 0.00 0.00 66 1019.3
20260506135153 25 243 3.2 9.7 0.00 0.00 0.00 68 1019.2
20260506134650 25 251 3.2 11.3 0.00 0.00 0.00 67 1019.0
20260506134146 25 220 4.8 12.9 0.00 0.00 0.00 69 1019.2
20260506133643 25 99 3.2 6.4 0.00 0.00 0.00 70 1019.1
20260506133140 25 245 8.0 11.3 0.00 0.00 0.00 69 1019.1
20260506132637 25 65 3.2 9.7 0.00 0.00 0.00 69 1019.2
20260506132134 25 209 8.0 9.7 0.00 0.00 0.00 70 1019.3
20260506131631 25 210 4.8 4.8 0.00 0.00 0.00 72 1019.0
20260506131127 24 74 3.2 8.0 0.00 0.00 0.00 73 1019.1
20260506130624 24 162 3.2 9.7 0.00 0.00 0.00 74 1018.9
20260506130122 24 251 4.8 8.0 0.00 0.00 0.00 75 1019.1
20260506125620 25 337 1.6 3.2 0.00 0.00 0.00 76 1019.2
20260506125117 24 246 0.0 4.8 0.00 0.00 0.00 77 1019.0
20260506124615 23 60 0.0 6.4 0.00 0.00 0.00 78 1019.1
20260506124113 23 246 4.8 9.7 0.00 0.00 0.00 79 1018.9
20260506123610 23 159 0.0 4.8 0.00 0.00 0.00 80 1018.6
20260506123109 22 209 0.0 8.0 0.00 0.00 0.00 81 1018.8
20260506122605 22 234 1.6 6.4 0.00 0.00 0.00 83 1018.9
20260506122103 21 220 3.2 6.4 0.00 0.00 0.00 85 1019.0
20260506121600 21 90 0.0 4.8 0.00 0.00 0.00 86 1018.7
20260506121056 21 213 4.8 4.8 0.00 0.00 0.00 87 1018.8
20260506120555 21 210 4.8 4.8 0.00 0.00 0.00 87 1018.9
20260506120051 20 84 3.2 6.4 0.00 0.00 0.00 88 1018.9
20260506115549 20 233 3.2 3.2 0.00 0.00 0.00 89 1018.8
20260506115048 20 208 0.0 8.0 0.00 0.00 0.00 89 1018.8
20260506114545 20 180 0.0 3.2 0.00 0.00 0.00 91 1018.7
20260506114043 20 81 0.0 0.0 0.00 0.00 0.00 92 1018.8
20260506113541 19 6 0.0 1.6 0.00 0.00 0.00 93 1018.7
20260506113038 18 105 0.0 4.8 0.00 0.00 0.00 94 1018.8
20260506112534 18 99 0.0 3.2 0.00 0.00 0.00 94 1018.5
20260506112031 18 15 0.0 3.2 0.00 0.00 0.00 95 1018.5
20260506111530 18 96 3.2 4.8 0.00 0.00 0.00 95 1018.5
20260506111026 18 99 0.0 1.6 0.00 0.00 0.00 96 1018.6
20260506110524 17 270 0.0 0.0 0.00 0.00 0.00 96 1018.5
20260506110021 17 98 0.0 3.2 0.00 0.00 0.00 96 1018.3
20260506105517 17 90 0.0 0.0 0.00 0.00 0.00 95 1018.4
20260506105015 17 90 0.0 1.6 0.00 0.00 0.00 95 1018.7
20260506104513 17 90 0.0 0.0 0.00 0.00 0.00 95 1018.5
20260506104010 17 90 0.0 0.0 0.00 0.00 0.00 95 1018.5
20260506103507 17 63 3.2 3.2 0.00 0.00 0.00 95 1018.3
20260506103004 17 123 0.0 3.2 0.00 0.00 0.00 95 1018.3
20260506102502 17 84 0.0 0.0 0.00 0.00 0.00 95 1018.2
20260506101959 17 84 0.0 3.2 0.00 0.00 0.00 96 1018.2
20260506101455 17 60 1.6 3.2 0.00 0.00 0.00 96 1018.3
20260506100953 17 114 0.0 0.0 0.00 0.00 0.00 96 1018.3
20260506100451 17 98 0.0 0.0 0.00 0.00 0.00 96 1018.2
20260506095949 17 98 0.0 1.6 0.00 0.00 0.00 96 1018.1
20260506095447 17 81 0.0 0.0 0.00 0.00 0.00 96 1018.0
20260506094943 17 66 0.0 0.0 0.00 0.00 0.00 96 1018.0
20260506094442 16 66 0.0 1.6 0.00 0.00 0.00 96 1018.2
20260506093939 16 99 0.0 0.0 0.00 0.00 0.00 96 1018.0
20260506093437 16 106 0.0 0.0 0.00 0.00 0.00 95 1018.2
20260506092934 16 106 0.0 0.0 0.00 0.00 0.00 95 1018.2
20260506092432 16 106 0.0 0.0 0.00 0.00 0.00 95 1018.3
20260506091928 17 99 0.0 0.0 0.00 0.00 0.00 95 1018.2
20260506091427 17 90 0.0 0.0 0.00 0.00 0.00 95 1018.1
20260506090923 17 77 0.0 0.0 0.00 0.00 0.00 95 1018.3
20260506090421 17 82 0.0 0.0 0.00 0.00 0.00 95 1018.3
20260506085918 16 82 0.0 1.6 0.00 0.00 0.00 95 1018.2
20260506085414 16 270 0.0 0.0 0.00 0.00 0.00 94 1018.3
20260506084910 17 270 0.0 0.0 0.00 0.00 0.00 94 1018.4
20260506084408 17 270 0.0 0.0 0.00 0.00 0.00 94 1018.5
20260506083904 17 270 0.0 1.6 0.00 0.00 0.00 93 1018.5
20260506083401 17 261 0.0 1.6 0.00 0.00 0.00 92 1018.3
20260506082859 17 270 0.0 0.0 0.00 0.00 0.00 92 1018.3
20260506082355 17 270 0.0 0.0 0.00 0.00 0.00 91 1018.5
20260506081851 17 270 0.0 1.6 0.00 0.00 0.00 91 1018.4
20260506081350 18 82 0.0 0.0 0.00 0.00 0.00 90 1018.3
20260506080847 18 66 0.0 1.6 0.00 0.00 0.00 90 1018.3
20260506080343 18 66 0.0 1.6 0.00 0.00 0.00 89 1018.4
20260506073327 18 69 0.0 1.6 0.00 0.00 0.00 89 1018.3
20260506072824 18 270 0.0 1.6 0.00 0.00 0.00 89 1018.1
20260506072322 18 75 0.0 0.0 0.00 0.00 0.00 88 1018.0
20260506071819 18 60 0.0 3.2 0.00 0.00 0.00 88 1017.9
20260506071317 18 66 1.6 3.2 0.00 0.00 0.00 88 1018.0
20260506070814 18 90 0.0 4.8 0.00 0.00 0.00 89 1018.1
20260506070311 18 234 0.0 0.0 0.00 0.00 0.00 89 1018.1
20260506062248 18 0 0.0 1.6 0.00 0.00 0.00 92 1018.5
20260506061744 17 117 1.6 3.2 0.00 0.00 0.00 92 1018.3
20260506061241 17 82 0.0 1.6 0.00 0.00 0.00 92 1018.2
20260506060739 17 270 0.0 0.0 0.00 0.00 0.00 91 1018.3
20260506060237 17 263 1.6 1.6 0.00 0.00 0.00 90 1018.3
20260506051209 17 120 0.0 1.6 0.00 0.00 0.00 87 1019.0
20260506050707 18 98 0.0 1.6 0.00 0.00 0.00 87 1019.0
20260506050203 18 294 0.0 0.0 0.00 0.00 0.00 87 1019.0
20260506044655 18 0 0.0 1.6 0.00 0.00 0.00 86 1019.3
20260506044151 18 117 0.0 3.2 0.00 0.00 0.00 87 1019.5
20260506043649 17 257 0.0 1.6 0.00 0.00 0.00 87 1019.4
20260506043146 17 114 0.0 1.6 0.00 0.00 0.00 88 1019.1
20260506042646 17 98 0.0 0.0 0.00 0.00 0.00 88 1019.3
20260506042143 17 71 0.0 0.0 0.00 0.00 0.00 89 1019.5
20260506041641 17 270 0.0 0.0 0.00 0.00 0.00 89 1019.3
20260506041137 17 270 0.0 0.0 0.00 0.00 0.00 89 1019.3
20260506040635 17 270 0.0 0.0 0.00 0.00 0.00 89 1019.3
20260506040132 17 262 0.0 0.0 0.00 0.00 0.00 88 1019.2
20260506035629 17 262 0.0 1.6 0.00 0.00 0.00 87 1019.5
20260506035125 17 263 0.0 1.6 0.00 0.00 0.00 87 1019.3
20260506034623 17 270 0.0 0.0 0.00 0.00 0.00 85 1019.2
20260506034120 17 270 0.0 0.0 0.00 0.00 0.00 84 1019.3
20260506033617 18 270 0.0 0.0 0.00 0.00 0.00 83 1019.0
20260506033114 18 132 0.0 3.2 0.00 0.00 0.00 83 1019.2
20260506032611 18 90 0.0 0.0 0.00 0.00 0.00 82 1019.2
20260506032108 18 95 3.2 3.2 0.00 0.00 0.00 81 1019.1
20260506031605 18 255 0.0 3.2 0.00 0.00 0.00 80 1019.1
20260506031102 18 103 1.6 4.8 0.00 0.00 0.00 80 1019.3
20260506030601 18 90 0.0 3.2 0.00 0.00 0.00 81 1019.1
20260506030057 18 97 0.0 4.8 0.00 0.00 0.00 81 1019.2
20260506025554 18 63 0.0 1.6 0.00 0.00 0.00 82 1019.2
20260506025050 18 111 0.0 3.2 0.00 0.00 0.00 81 1019.3
20260506024548 18 82 0.0 3.2 0.00 0.00 0.00 83 1019.4
20260506024044 18 98 0.0 0.0 0.00 0.00 0.00 82 1019.6
20260506023539 18 98 0.0 1.6 0.00 0.00 0.00 80 1019.7